Content
SEND FEEDBACK

Daily
Averages
Monthly
Summary
United States of America

YIGO, GUAM


Home > North America > United States > Guam
Elevation: 530 feet     Latitude: 13 32N     Longitude: 144 53E

WEATHER
 
SELECT A DAY
Number of Records: 208,892;   Date Range: 1/1/95 - 7/22/14
 
SHARE

PRINT THIS DATA

[ ← Previous Day ]
WEATHER ALMANAC - APRIL 8, 2013
[ Next Day → ]
[ °C ]   °F
Weather ElementAverageHighLow
Temperature84 °F88 °F (11:54 am)79 °F (5:54 am)
Dewpoint71.4 °F73 °F (2:54 am)70 °F (10:54 am)
Humidity66 %82 % (5:54 am)55 % (11:54 am)
Barometer29.87 in29.93 in (9:18 am)29.81 in (3:54 am)
Wind Speed8.7 mph13.8 mph (12:54 pm)
Wind Gust18.4 mph (2:54 pm)
Weather ElementAverage
Visibility10 mi
Wind DirectionE (87.3 °)

Weather ElementTotal
Precipitation---
Cooling Degree Days18.5 (Base 65)
Growing Degree Days33.5 (Base 50)
Averaged from 26 records on April 8, 2013
WEATHER CONDITIONS BREAKOUT
WIND DIRECTION BREAKOUT
WEATHER BY HOUR - APRIL 8, 2013
[ °C ]   °F
Local TimeTemperatureDewpointHumidityBarometerVisibilityWind DirectionWind SpeedGust SpeedPrecipitationEventsConditions
1:54 AM81.0 °F72.0 °F74 %29.83 in10.0 miEast (90°)5.8 mphClear
2:54 AM80.1 °F73.0 °F79 %29.82 in10.0 miEast (90°)4.6 mphClear
3:54 AM80.1 °F72.0 °F76 %29.81 in10.0 miEast (100°)3.5 mphClear
4:54 AM81.0 °F73.0 °F77 %29.83 in10.0 miEast (80°)4.6 mphMostly Cloudy
5:54 AM79.0 °F73.0 °F82 %29.85 in10.0 miNorth (10°)3.5 mphOvercast
6:54 AM80.1 °F72.0 °F76 %29.87 in10.0 miEast (100°)3.5 mphClear
7:54 AM84.9 °F73.0 °F67 %29.89 in10.0 miENE (70°)8.1 mphMostly Cloudy
8:54 AM84.0 °F71.1 °F65 %29.91 in10.0 miESE (120°)6.9 mphMostly Cloudy
9:18 AM84.2 °F71.6 °F66 %29.93 in10.0 miESE (120°)8.1 mphMostly Cloudy
9:26 AM86.0 °F71.6 °F62 %29.93 in10.0 miESE (110°)9.2 mphMostly Cloudy
9:37 AM86.0 °F71.6 °F62 %29.93 in10.0 miEast (80°)10.4 mphMostly Cloudy
9:54 AM86.0 °F71.1 °F61 %29.91 in10.0 miESE (110°)9.2 mphPartly Cloudy
10:54 AM87.1 °F70.0 °F57 %29.90 in10.0 miEast (90°)10.4 mphScattered Clouds
11:54 AM88.0 °F70.0 °F55 %29.88 in10.0 miESE (110°)11.5 mphPartly Cloudy
12:54 PM88.0 °F71.1 °F57 %29.85 in10.0 miEast (100°)13.8 mph17.3 mphPartly Cloudy
1:54 PM88.0 °F71.1 °F57 %29.83 in10.0 miEast (100°)11.5 mphPartly Cloudy
2:54 PM87.1 °F71.1 °F59 %29.81 in10.0 miEast (100°)11.5 mph18.4 mphPartly Cloudy
3:54 PM88.0 °F71.1 °F57 %29.81 in10.0 miEast (100°)11.5 mphPartly Cloudy
4:54 PM86.0 °F71.1 °F61 %29.81 in10.0 miEast (90°)8.1 mphPartly Cloudy
5:54 PM84.9 °F71.1 °F63 %29.83 in10.0 miEast (90°)9.2 mphPartly Cloudy
6:54 PM82.9 °F71.1 °F67 %29.85 in10.0 miENE (60°)8.1 mphPartly Cloudy
7:54 PM82.9 °F72.0 °F69 %29.87 in10.0 miENE (70°)8.1 mphPartly Cloudy
8:54 PM82.9 °F70.0 °F65 %29.88 in10.0 miENE (70°)12.7 mphPartly Cloudy
9:54 PM82.0 °F70.0 °F67 %29.91 in10.0 miENE (70°)12.7 mphPartly Cloudy
10:54 PM82.0 °F71.1 °F69 %29.91 in10.0 miEast (80°)9.2 mphPartly Cloudy
11:54 PM82.0 °F70.0 °F67 %29.90 in10.0 miENE (60°)9.2 mphPartly Cloudy
Hourly data recorded from PGUM, located miles away from Yigo, Guam







STORIES FROM OUR PARTNERS